Starlink 30401

operational
NORAD ID: 57818 Int'l Des: 2023-138 Owner: SPXS Country: US Constellation: starlink
LEOCIRCULAR

关于 Starlink 30401

正在加载描述...

实时位置

正在加载3D地球...

即将过境

高度历史

Altitude vs Time

uPlot chart will show altitude changes over time

两行轨道根数

1 57818U 23138L 26035.43515802 -.00004650 00000-0 -32916-3 0 9991
2 57818 43.0027 56.7583 0000922 271.2107 88.8629 15.02558005133610
Epoch: Feb 4, 2026 • Age: 19 hours

当前状态

高度 559.7 km
速度 7.59 km/s
星下点 28.18°N, 134.9°W
发射日期 Sep 9, 2023
运行时间 2.4 years
类型 internet

技术详情

分类 Payload
质量 730.00 kg
干质量 700.00 kg
总质量 730.00 kg
长度 0.30 m
直径 4.10 m
跨度 29.00 m
形状 Box + pan
制造商 SPXS
平台类型 Starlink V2M
阶段状态 In Orbit
所有者/国家 SPXS/US

大型星座

Loading constellations...